Sierra Vista, AZ

12:31 AM MST on April 26, 2017 (GMT -0700)
Sierra Vista Municipal-Libby Army Air Field

Weather History for KFHU - May, 2013

Change the Weather History Date:

Monday, May 13, 2013

  Actual Average Record
Temperature  
Mean Temperature 72 °F -  
Max Temperature 84 °F 82 °F 93 °F (1988)
Min Temperature 60 °F 60 °F 44 °F (1982)
Cooling Degree Days 7    
Growing Degree Days 22 (Base 50)    
Moisture  
Dew Point 21 °F    
Average Humidity 17    
Maximum Humidity 27    
Minimum Humidity 6    
Precipitation  
Precipitation 0.00 in - - ()
Sea Level Pressure  
Sea Level Pressure 30.02 in    
Wind  
Wind Speed 10 mph (SE)    
Max Wind Speed 17 mph    
Max Gust Speed 30 mph    
Visibility 10 miles    
Events      
Averages and records for this station are not official NWS values.
T = Trace of Precipitation, MM = Missing Value Source: NWS Daily Summary

Daily Weather History Graph

Daily Weather History Graph

Search for Another Location

Airport or City:

Trip Planner

Search our weather history database for the weather conditions in past years. The results will help you decide how hot, cold, wet, or windy it might be!

Date:

Astronomy

May. 13, 2013 Rise Set
Actual Time 5:25 AM MST 7:09 PM MST
Civil Twilight 4:59 AM MST 7:36 PM MST
Nautical Twilight 4:27 AM MST 8:08 PM MST
Astronomical Twilight 3:53 AM MST 8:42 PM MST
Moon 8:16 AM MST (5/13) 10:21 PM MST (5/13)
Length of Visible Light 14h 37m
Length of Day
13h 43m
Waxing Crescent, 13% of the Moon is Illuminated
May 13
Waxing Crescent
May 17
First Quarter
May 24
Full
May 31
Last Quarter
Jun 8
New

Hourly Weather History & Observations

Time (MST) Temp. Dew Point Humidity Pressure Visibility Wind Dir Wind Speed Gust Speed Precip Events Conditions
12:55 AM 64.4 °F 26.6 °F 24% 30.04 in 10.0 mi SSE 8.1 mph - N/A   Clear
1:55 AM 62.6 °F 26.6 °F 26% 30.04 in 10.0 mi SSE 9.2 mph - N/A   Clear
2:55 AM 62.6 °F 26.6 °F 26% 30.02 in 10.0 mi SSE 8.1 mph - N/A   Clear
3:55 AM 60.8 °F 26.6 °F 27% 30.03 in 10.0 mi SE 5.8 mph - N/A   Clear
4:55 AM 60.8 °F 26.6 °F 27% 30.06 in 10.0 mi SSE 8.1 mph - N/A   Clear
5:55 AM 60.8 °F 26.6 °F 27% 30.06 in 10.0 mi SSE 9.2 mph - N/A   Clear
6:55 AM 66.2 °F 30.2 °F 26% 30.08 in 10.0 mi SE 6.9 mph - N/A   Clear
7:55 AM 69.8 °F 30.2 °F 23% 30.09 in 10.0 mi East 6.9 mph - N/A   Clear
8:55 AM 71.6 °F 28.4 °F 20% 30.09 in 10.0 mi East 12.7 mph - N/A   Partly Cloudy
9:55 AM 75.2 °F 28.4 °F 18% 30.08 in 10.0 mi East 15.0 mph 26.5 mph N/A   Partly Cloudy
10:55 AM 78.8 °F 28.4 °F 16% 30.07 in 10.0 mi East 17.3 mph 27.6 mph N/A   Partly Cloudy
11:55 AM 80.6 °F 26.6 °F 14% 30.05 in 10.0 mi East 15.0 mph 29.9 mph N/A   Partly Cloudy
1:55 PM 84.2 °F 15.8 °F 8% 30.00 in 10.0 mi East 9.2 mph 28.8 mph N/A   Partly Cloudy
2:55 PM 84.2 °F 17.6 °F 8% 29.97 in 10.0 mi ENE 15.0 mph 29.9 mph N/A   Partly Cloudy
3:55 PM 82.4 °F 12.2 °F 7% 29.96 in 10.0 mi NE 16.1 mph 23.0 mph N/A   Partly Cloudy
4:55 PM 82.4 °F 10.4 °F 7% 29.96 in 10.0 mi ESE 15.0 mph 23.0 mph N/A   Partly Cloudy
5:55 PM 80.6 °F 8.6 °F 6% 29.94 in 10.0 mi ESE 13.8 mph 19.6 mph N/A   Partly Cloudy
6:55 PM 78.8 °F 6.8 °F 6% 29.94 in 10.0 mi ESE 11.5 mph - N/A   Partly Cloudy
7:55 PM 71.6 °F 8.6 °F 9% 29.96 in 10.0 mi SSE 10.4 mph - N/A   Partly Cloudy
8:55 PM 69.8 °F 12.2 °F 11% 29.97 in 10.0 mi South 10.4 mph - N/A   Partly Cloudy
9:55 PM 71.6 °F 14.0 °F 11% 29.98 in 10.0 mi South 10.4 mph - N/A   Partly Cloudy
10:55 PM 66.2 °F 17.6 °F 15% 29.98 in 10.0 mi SSE 6.9 mph - N/A   Clear
11:55 PM 64.4 °F 19.4 °F 18% 29.99 in 10.0 mi Variable 5.8 mph - N/A   Clear